Location: Aurora Center
(43.5271°N, 98.5894°W)
Time: 09:14:12
(UTC-05:00)

ACS3 Solar Sail - Pass Details

Date: 19 June 2024
Orbit: 992 x 1023 km, 97.4° (Epoch: 11 July)

Event Time Altitude Azimuth Distance (km) Brightness Sun altitude
Exits shadow 23:17:59 19° 177° (S) 2,203 6.1 -15.9°
Maximum altitude 23:22:41 73° 259° (W) 1,044 5.0 -16.4°
Drops below altitude 10° 23:28:55 10° 344° (NNW) 2,767 8.4 -17.0°
Sets 23:31:25 0° 347° (NNW) 3,719 9.3 -17.2°
